www.pogodaiklimat.ru

Погода и климат >> Архив погоды >> Россия >> Магаданская область >> Среднекан


ПОГОДА в Среднекане

  • Прогноз погоды в Среднекане
  • Монитор погоды в Среднекане
  • Климат города

АРХИВ ПОГОДЫ в Среднекане

Время (UTC), дата Ветер
(напр.,м/с)
 
Видим.   Явления Облачность Т
(С)
Тd
(С)
f
(%)
Тe
(С)
Тes
(С)
Комфортность P
(гПа)
Po
(гПа)
Тmin
(С)
Tmax
(С)
R
(мм)
R24
(мм)
S
(см)
06 9.12 Ю 1 20 км слабый снег {туман} 10/4 1000 м
[Sc Ac trans Cs]
-31.8 -35.3 71 -36 -36 опасность
обморожения
1025.9 988.7
09 9.12 Ю 1 10 км слабый снег 10/5 1000 м
[Sc As op]
-30.4 -33.8 72 -35 -35 опасность
обморожения
1025.8 988.8 -30.4 0.3
12 9.12 штиль 0 10 км слабый снег 10/5 1000 м
[Sc As op]
-29.0 -32.3 73 -29 -29 1025.0 988.2
15 9.12 ЮВ 1 20 км слабый снег 10/3 1000 м
[Sc As op]
-28.0 -31.1 75 -32 -32 опасность
обморожения
1024.4 987.8
18 9.12 ЮВ 1 20 км слабый снег 10/3 1000 м
[Sc Ac trans Cs]
-28.7 -31.9 74 -33 -33 опасность
обморожения
1024.4 987.6
21 9.12 штиль 0 20 км слабый снег 10/0
[Ac trans Cs]
-28.6 -31.8 74 -29 -29 1024.2 987.5 -30.4 0.4 85
00 10.12 штиль 0 20 км слабый снег 10/3 1000 м
[Sc As op]
-28.5 -31.6 75 -29 -29 1023.9 987.3
03 10.12 штиль 0 20 км слабый снег 10/5 1000 м
[Sc As op]
-25.9 -28.8 77 -26 -26 1022.7 986.4
06 10.12 штиль 0 20 км слабый снег 10/3 1000 м
[Sc As op]
-27.2 -30.3 75 -27 -27 1023.0 986.5
09 10.12 штиль 0 500 м туман {снег} 10/6 1000 м
[Sc Ac As]
-28.7 -31.9 74 -29 -29 1023.4 986.7 -25.8 0.3
12 10.12 штиль 0 500 м туман {снег} 10/3 1000 м
[Sc Ac trans Ci fib]
-28.4 -31.6 74 -28 -28 1023.9 987.2
15 10.12 штиль 0 500 м слабый снег {туман} 10/3 1000 м
[Sc As op]
-31.8 -35.3 71 -32 -32 опасность
обморожения
1024.6 987.4
18 10.12 В 1 20 км слабый снег {туман} 10/0
[As op]
-32.3 -35.8 71 -37 -37 опасность
обморожения
1025.1 987.8
21 10.12 ЮВ 1 20 км слабый снег 10/0
[Ac trans Cs]
-32.0 -35.5 71 -36 -36 опасность
обморожения
1024.9 987.7 -32.4 0.6 85
00 11.12 штиль 0 20 км слабый снег 10/3 1000 м
[Sc diur, vesp Ac trans Cs]
-31.6 -35.1 71 -32 -32 опасность
обморожения
1024.8 987.6
03 11.12 Ю 1 20 км слабый снег 10/3 1000 м
[Sc diur, vesp Ac trans Cs]
-31.0 -34.5 71 -35 -35 опасность
обморожения
1024.0 987.0
06 11.12 Ю 1 20 км слабый снег 10/0
[Ac trans Cs]
-31.7 -35.2 71 -36 -36 опасность
обморожения
1023.4 986.3
09 11.12 Ю 1 20 км слабый снег 10/0
[As op]
-31.3 -34.8 71 -36 -36 опасность
обморожения
1023.5 986.4 -30.9 0.5
12 11.12 Ю 1 20 км слабый снег 10/0
[Ac trans Cs]
-32.3 -35.9 70 -37 -37 опасность
обморожения
1023.3 986.1
15 11.12 Ю 2 20 км слабый снег 10/0
[Ac trans Cs]
-32.2 -35.8 70 -40 -40 опасность
обморожения
1022.9 985.7
18 11.12 Ю 1 20 км слабый снег 10/0
[Ac trans Cs]
-31.9 -35.4 71 -36 -36 опасность
обморожения
1022.6 985.5
21 11.12 Ю 1 20 км слабый снег 10/0
[As op]
-31.8 -35.3 71 -36 -36 опасность
обморожения
1022.5 985.4 -32.7 0.2 85
00 12.12 ЮЗ 1 20 км слабый снег 10/0
[Ac trans Cs]
-32.2 -35.8 70 -37 -37 опасность
обморожения
1022.8 985.6
03 12.12 Ю 1 50 км {снег} 10/6 1000 м
[Sc Ac trans Ci fib]
-32.4 -36.0 70 -37 -37 опасность
обморожения
1022.6 985.4
06 12.12 Ю 1 50 км {снег} 10/3 1000 м
[Sc Ac trans Ci fib]
-33.8 -37.6 68 -38 -38 опасность
обморожения
1022.9 985.5
09 12.12 Ю 1 50 км 5/0
[Ci fib]
-36.0 -40.1 66 -41 -41 опасность
обморожения
1023.3 985.5 -31.8 0.0
12 12.12 Ю 1 500 м туман 5/0
[Ci fib]
-37.1 -41.2 65 -42 -42 опасность
обморожения
1023.5 985.5
15 12.12 Ю 1 500 м туман 10/0
[Ac trans Ci fib]
-38.1 -42.4 64 -43 -43 опасность
обморожения
1022.9 984.8
18 12.12 Ю 1 500 м туман 10/0
[Ac trans Ci fib]
-38.8 -43.2 63 -44 -44 опасность
обморожения
1022.4 984.2
21 12.12 Ю 1 500 м туман 5/0
[Ci fib]
-39.4 -43.9 62 -45 -45 опасность
обморожения
1022.3 984.0 -39.4 85
00 13.12 Ю 1 500 м туман 10/0
[Ci fib]
-39.9 -44.4 62 -45 -45 опасность
обморожения
1022.4 984.0 -40.0
03 13.12 Ю 1 500 м туман 10/0
[Ac trans Ci fib]
-39.4 -43.9 62 -45 -45 опасность
обморожения
1021.3 983.0
06 13.12 ЮВ 1 500 м туман 8/0
[Ci fib]
-40.5 -45.2 60 -46 -46 опасность
обморожения
1021.2 982.8
09 13.12 ЮВ 1 500 м туман ?/? -40.5 -45.1 61 -46 -46 опасность
обморожения
1021.5 983.1 -38.8
12 13.12 штиль 0 500 м туман ?/? -41.5 -46.2 60 -42 -42 опасность
обморожения
1021.7 983.1
15 13.12 штиль 0 500 м туман ?/? -41.4 -46.1 60 -41 -41 опасность
обморожения
1021.5 982.9
18 13.12 штиль 0 500 м туман ?/? -41.5 -46.2 60 -42 -42 опасность
обморожения
1021.1 982.5
21 13.12 штиль 0 500 м туман ?/? -41.7 -46.5 59 -42 -42 опасность
обморожения
1020.9 982.3 -42.0 85
00 14.12 штиль 0 500 м туман ?/? -41.9 -46.6 60 -42 -42 опасность
обморожения
1020.7 982.0 -42.1
03 14.12 штиль 0 500 м туман ?/? -41.5 -46.2 60 -42 -42 опасность
обморожения
1019.1 980.6
06 14.12 штиль 0 500 м туман ?/? -42.5 -47.4 58 -43 -43 опасность
обморожения
1018.6 979.9
09 14.12 штиль 0 500 м туман ?/? -42.8 -47.7 58 -43 -43 опасность
обморожения
1018.3 979.6 -41.4
12 14.12 штиль 0 500 м туман ?/? -42.9 -47.8 58 -43 -43 опасность
обморожения
1017.8 979.1
15 14.12 штиль 0 500 м туман ?/? -43.1 -48.1 58 -43 -43 опасность
обморожения
1017.4 978.7
18 14.12 штиль 0 500 м ?/? -43.2 -48.2 58 -43 -43 опасность
обморожения
1017.2 978.5
21 14.12 штиль 0 500 м туман ?/? -43.0 -47.9 58 -43 -43 опасность
обморожения
1017.0 978.4 -43.8 84
00 15.12 штиль 0 500 м туман ?/? -42.6 -47.5 58 -43 -43 опасность
обморожения
1017.0 978.4
03 15.12 штиль 0 500 м туман ?/? -41.0 -45.7 60 -41 -41 опасность
обморожения
1016.3 978.0
06 15.12 штиль 0 500 м туман ?/? -41.7 -46.5 59 -42 -42 опасность
обморожения
1016.6 978.1
09 15.12 штиль 0 500 м туман ?/? -41.6 -46.4 59 -42 -42 опасность
обморожения
1016.7 978.3 -41.0
12 15.12 штиль 0 500 м туман ?/? -41.5 -46.2 60 -42 -42 опасность
обморожения
1016.6 978.2
15 15.12 штиль 0 500 м туман ?/? -42.1 -46.9 59 -42 -42 опасность
обморожения
1015.8 977.3
18 15.12 Ю 1 500 м туман ?/? -42.1 -46.9 59 -48 -48 опасность
обморожения
1015.7 977.2
21 15.12 штиль 0 500 м туман ?/? -42.2 -47.1 59 -42 -42 опасность
обморожения
1015.7 977.2 -42.6 84
00 16.12 штиль 0 500 м туман ?/? -42.0 -46.8 59 -42 -42 опасность
обморожения
1015.7 977.2

 

Местоположение метеостанции Среднекан (Магаданская область, Россия): широта 62.45 долгота 152.30 высота над уровнем моря 260 м.

В архиве по умолчанию представлена погода в Среднекане за последнюю неделю. Архивные данные за месяц целиком и за предыдущие месяцы, начиная с января 2011 года, Вы можете получить, выбрав интересующий диапазон дат из раскрывающегося списка и нажав кнопку "Ввод!".


*Определитесь, кто Вы:
робот инопланетянин человек

Внимание! Время в таблицах - всемирное. Для получения местного времени необходимо прибавить поправку, которая в Среднекане равна 11 ч.

Смотрите также архив погоды в соседних городах и на ближайших метеорологических станциях:

Погода в Сеймчане (Магаданская область, Россия) (51 км)
Погода в Совхозе Эльген (Магаданская область, Россия) (95 км)
Погода в Усть-Бохапче (Магаданская область, Россия) (96 км)
Погода в Ягодной (Магаданская область, Россия) (139 км)
Погода в Талае (Магаданская область, Россия) (147 км)
Погода в Озере Джека Лондона (Магаданская область, Россия) (151 км)
Погода в Омсукчане (Магаданская область, Россия) (180 км)
Погода в Балыгычане (Магаданская область, Россия) (186 км)
Погода в Усть-Омчуге (Магаданская область, Россия) (205 км)
Погода в Сусумане (Магаданская область, Россия) (218 км)

Пояснения к столбцам:

Ветер - указаны скорость ветра в м/с - средняя за 10 мин, порывы в срок и между сроками (в фигурных скобках) и направление, откуда дует ветер: С - северный, СВ - северо-восточный, В - восточный, ЮВ - юго-восточный, Ю - южный, ЮЗ - юго-западный, З - западный, СЗ - северо-западный.
Видимость - горизонтальная дальность видимости в метрах или километрах. При видимости от 1 до 10 км при отсутствии осадков обычно наблюдается дымка, при ухудшении видимости до 1 км и менее - туман. В сухую погоду видимость может ухудшаться дымом, пылью или мглою.
Явления - указаны атмосферные явления, наблюдавшиеся в срок или в последний час перед сроком; фигурными скобками обозначены явления, наблюдавшиеся между сроками (за 1-3 часа до срока); квадратными скобками обозначены град или гололедные отложения с указанием их диаметра в мм.
Облачность - указаны через наклонную черту общая и нижняя облачность в баллах и высота нижней границы облаков в метрах; квадратными скобками обозначены формы облаков: Ci - перистые, Cs - перисто-слоистые, Cc - перисто-кучевые, Ac - высококучевые, As - высокослоистые, Sc - слоисто-кучевые, Ns - слоисто-дождевые, Cu - кучевые, Cb - кучево-дождевые. Подробнее классификацию облаков см. в Атласе облаков (PDF).
T - Температура воздуха - температура, измеренная на высоте 2 м над землей.
Td - Температура точки росы - температура, при понижении до которой содержащийся в воздухе водяной пар достигнет насыщения.
f - Относительная влажность воздуха - влажноcть воздуха, измеренная на высоте 2 м над землей.
Te - Эффективная температура - температура, которую ощущает одетый по сезону человек в тени. Характеристика душности погоды. При расчете учитывается влияние влажности воздуха и скорости ветра на теплоощущения человека.
Tes - Эффективная температура на солнце - температура, которую ощущает человек, с поправкой на солнечный нагрев. Характеристика знойности погоды. Зависит от высоты солнца над горизонтом, облачности и скорости ветра. Ночью, в пасмурную погоду, а также при ветре 12 м/с и более поправка равна нулю.
P - Атмосферное давление - приведенное к уровню моря атмосферное давление.
Po - Атмосферное давление - измеренное на уровне метеостанции атмосферное давление.
Tmin - Минимальная температура - минимум температуры воздуха на высоте 2 м над землей.
Tmax - Максимальная температура - максимум температуры воздуха на высоте 2 м над землей.
R - Количество осадков - Количество выпавших осадков за период времени, мм. При наведении курсора мыши на число - период времени, за который выпало указанное количество осадков.
R24 - Количество осадков - Количество выпавших осадков за 24 часа, мм.
S - Снежный покров - Высота снежного покрова, см. При наведении курсора мыши на число - состояние снежного покрова и степень покрытия местности в баллах.